Weather in Petrykivka

Ukraine / Dnipropetrovsk Region     48°43′36″N   34°37′53″E
temp.,
°C
wind,
m/s
gust,
m/s
humid.,
%
clouds,
%
prec.,
mm/h
press.,
hPa
HPBL,
m
12 april, mon
mon1200:00+8nne486198 0.0 1024177
03:00+9nne51062100 0.0 1023386
06:00+9ne5968100 0.0 1022413
09:00+11ene467398 0.0 1021429
12:00+15ene3466100 0.0 1020985
15:00+17ese3457100 0.0 10191303
18:00+15sw236897 0.0 1019326
21:00+13sw2379100 0.0 102070
13 april, tue
tue1300:00+12s3585100 0.1 1020206
03:00+11sse3583100 0.2 1021168
06:00+10sse3686100 0.0 1021251
09:00+10sse3585100 0.0 1021364
12:00+13sse457099 0.0 1021880
15:00+15sse4559100 0.1 10201431
18:00+13sse2468100 0.0 1020173
21:00+12sse2371100 0.0 102061
14 april, wed
wed1400:00+11s2476100 0.0 1019118
03:00+10s24835 0.0 101990
06:00+7sse2292100 0.0 101934
09:00+10s2378100 0.0 1018377
12:00+14sse3361100 0.0 10181053
15:00+15se3454100 0.0 10161374
18:00+15ese245599 0.0 1016180
21:00+13se2458100 0.0 101668
15 april, thu
thu1500:00+10sse337496 0.0 101537
03:00+9s237998 0.0 101535
06:00+8sse228395 0.0 101522
09:00+12se346879 0.0 1015453
12:00+16se345283 0.0 10141253
15:00+17s4542100 0.0 10121920
18:00+15ssw2456100 0.0 1012153
21:00+13sse4671100 0.1 1012352
16 april, fri
fri1600:00+11s248164 1.1 1012424
03:00+8s349325 1.1 1012116
06:00+9sse359176 0.0 1011285
09:00+11sse557370 0.0 1012778
12:00+13s5661100 0.0 10121323
15:00+13s4562100 0.2 10121140
18:00+11s4571100 0.0 1012781
21:00+9s2480100 0.0 1012365